Ottawa International, Ontario

4:49 PM EST on February 11, 2016 (GMT -0500)
Ottawa-Macdonald-Cartier International

Weather History for CYOW - October, 2012

Change the Weather History Date:

Sunday, October 7, 2012

  Actual Average Record
Temperature  
Mean Temperature 42 °F -  
Max Temperature 48 °F 51 °F 73 °F (2004)
Min Temperature 35 °F 35 °F 28 °F (1999)
Degree Days  
Heating Degree Days 24    
Moisture  
Dew Point 33 °F    
Average Humidity 69    
Maximum Humidity 87    
Minimum Humidity 41    
Precipitation  
Precipitation 0.00 in 0.10 in - ()
Sea Level Pressure  
Sea Level Pressure 30.03 in    
Wind  
Wind Speed 7 mph ()    
Max Wind Speed 12 mph    
Max Gust Speed -    
Visibility 15.0 miles    
Events Rain    
Averages and records for this station are not official NWS values.
T = Trace of Precipitation, MM = Missing Value Source: Averaged Metar Reports

Daily Weather History Graph

Daily Weather History Graph

Search for Another Location

Airport or City:

Trip Planner

Search our weather history database for the weather conditions in past years. The results will help you decide how hot, cold, wet, or windy it might be!

Date:

Astronomy

Oct. 07, 2012 Rise Set
Actual Time 7:08 AM EDT 6:30 PM EDT
Civil Twilight 6:39 AM EDT 7:00 PM EDT
Nautical Twilight 6:05 AM EDT 7:34 PM EDT
Astronomical Twilight 5:30 AM EDT 8:08 PM EDT
Moon 11:29 PM EDT (10/7) 1:56 PM EDT (10/7)
Length of Visible Light 12h 20m
Length of Day
11h 21m
Waning Gibbous, 56% of the Moon is Illuminated
Oct 7
Waning Gibbous
Oct 8
Last Quarter
Oct 15
New
Oct 21
First Quarter
Oct 29
Full

Hourly Weather History & Observations

Time (EDT) Temp. Windchill Dew Point Humidity Pressure Visibility Wind Dir Wind Speed Gust Speed Precip Events Conditions
12:00 AM 44.6 °F 39.2 °F 39.2 °F 81% 29.93 in 15.0 mi West 10.4 mph - N/A Rain Light Rain Showers
12:43 AM 42.8 °F 37.5 °F 39.2 °F 87% 29.94 in 15.0 mi West 9.2 mph - N/A   Mostly Cloudy
1:00 AM 42.8 °F 38.0 °F 39.2 °F 87% 29.95 in 15.0 mi West 8.1 mph - N/A   Mostly Cloudy
1:16 AM 42.8 °F 37.5 °F 39.2 °F 87% 29.95 in 15.0 mi West 9.2 mph - N/A Rain Light Rain Showers
2:00 AM 43 °F - 38 °F 76% 29.97 in 15 mi West 11.5 mph - - Rain Light Rain Showers
2:00 AM 42.8 °F 37.0 °F 37.4 °F 81% 29.96 in 15.0 mi West 10.4 mph - N/A   Mostly Cloudy
3:00 AM 42.8 °F 36.6 °F 35.6 °F 76% 29.97 in 15.0 mi NW 11.5 mph - N/A   Mostly Cloudy
4:00 AM 39.2 °F 34.2 °F 35.6 °F 87% 29.99 in 15.0 mi WNW 6.9 mph - N/A   Mostly Cloudy
5:00 AM 39.2 °F 33.0 °F 33.8 °F 81% 30.04 in 15.0 mi West 9.2 mph - N/A   Mostly Cloudy
6:00 AM 37.4 °F 32.1 °F 32.0 °F 81% 30.05 in 15.0 mi WNW 6.9 mph - N/A   Partly Cloudy
7:00 AM 35.6 °F 29.2 °F 32.0 °F 87% 30.06 in 15.0 mi WNW 8.1 mph - N/A   Scattered Clouds
8:00 AM 39 °F - 32 °F 68% 30.06 in 15 mi NW 10.4 mph - -   Partly Cloudy
8:00 AM 39.2 °F 32.5 °F 32.0 °F 75% 30.06 in 15.0 mi NW 10.4 mph - N/A   Mostly Cloudy
9:00 AM 39.2 °F 33.0 °F 32.0 °F 75% 30.07 in 15.0 mi NNW 9.2 mph - N/A   Scattered Clouds
10:00 AM 41.0 °F 34.7 °F 32.0 °F 70% 30.07 in 15.0 mi NW 10.4 mph - N/A   Scattered Clouds
11:00 AM 42.8 °F 38.0 °F 32.0 °F 66% 30.08 in 15.0 mi NNW 8.1 mph - N/A   Scattered Clouds
12:00 PM 44.6 °F 42.2 °F 32.0 °F 61% 30.09 in 15.0 mi West 4.6 mph - N/A   Partly Cloudy
1:00 PM 46.4 °F 44.3 °F 33.8 °F 62% 30.08 in 15.0 mi WNW 4.6 mph - N/A   Partly Cloudy
2:00 PM 47 °F - 31 °F 41% 30.06 in 15 mi West 3.5 mph - -   Scattered Clouds
2:00 PM 46.4 °F 44.3 °F 30.2 °F 53% 30.06 in 15.0 mi WNW 4.6 mph - N/A   Partly Cloudy
3:00 PM 46.4 °F 43.5 °F 28.4 °F 50% 30.05 in 15.0 mi WNW 5.8 mph - N/A   Scattered Clouds
4:00 PM 46.4 °F 44.3 °F 28.4 °F 50% 30.04 in 15.0 mi NNW 4.6 mph - N/A   Scattered Clouds
5:00 PM 46.4 °F 44.3 °F 30.2 °F 53% 30.04 in 15.0 mi West 4.6 mph - N/A   Mostly Cloudy
6:00 PM 46.4 °F 45.2 °F 32.0 °F 57% 30.04 in 15.0 mi West 3.5 mph - N/A   Mostly Cloudy
7:00 PM 41.0 °F 39.0 °F 33.8 °F 76% 30.04 in 15.0 mi SE 3.5 mph - N/A   Mostly Cloudy
8:00 PM 44 °F - 32 °F 51% 30.05 in 15 mi ESE 2.3 mph - -   Mostly Cloudy
8:00 PM 44.6 °F - 32.0 °F 61% 30.05 in 15.0 mi ESE 2.3 mph - N/A   Mostly Cloudy
9:00 PM 42.8 °F 40.1 °F 32.0 °F 66% 30.06 in 15.0 mi NNE 4.6 mph - N/A   Overcast
10:00 PM 42.8 °F 40.1 °F 32.0 °F 66% 30.07 in 15.0 mi NNE 4.6 mph - N/A   Mostly Cloudy
11:00 PM 41.0 °F 36.4 °F 30.2 °F 65% 30.08 in 15.0 mi North 6.9 mph - N/A   Mostly Cloudy